1537286401.06,529,24.5,74642.3,9.93,-22.37,-21.93,0,*7D
1537286402.29,530,24.56,74642.0,9.93,-22.41,-21.97,0,*70
1537286403.52,531,24.5,74642.5,9.93,-22.41,-21.97,0,*71
1537286404.74,532,24.5,74642.3,9.93,-22.53,-22.07,0,*7B
1537286405.95,533,24.5,74642.0,9.91,-22.77,-22.27,0,*7C
1537286407.19,534,24.5,74642.3,9.91,-22.73,-22.17,0,*7C
1537286408.44,535,24.5,74638.3,9.91,-22.77,-22.31,0,*7D
1537286409.71,536,24.5,74640.5,9.89,-22.73,-22.17,0,*77
1537286410.9,537,24.5,74642.8,9.91,-22.57,-22.27,0,*7A
1537286412.12,538,24.5,74640.0,9.91,-22.57,-22.17,0,*76
1537286413.36,539,24.5,74638.8,9.89,-22.63,-22.17,0,*79
1537286414.6,540,24.5,74640.0,9.89,-22.63,-22.17,0,*77
1537286415.82,541,24.5,74640.3,9.89,-22.57,-22.11,0,*77
1537286417.07,542,24.5,74640.5,9.89,-22.47,-22.03,0,*76
1537286418.31,543,24.5,74640.0,9.89,-22.63,-22.17,0,*74
1537286419.56,544,24.5,74642.0,9.89,-22.57,-22.17,0,*74
1537286420.77,545,24.5,74642.5,9.89,-22.63,-22.27,0,*71
1537286422.02,546,24.5,74640.0,9.89,-22.57,-22.17,0,*76
1537286423.2,547,24.5,74640.0,9.87,-22.63,-22.07,0,*7F
1537286424.42,548,24.5,74640.0,9.87,-22.53,-22.17,0,*72
1537286425.64,549,24.5,74640.0,9.89,-22.57,-22.11,0,*7F
1537286426.88,550,24.5,74640.0,9.89,-22.47,-22.03,0,*75
1537286428.12,551,24.5,74642.5,9.89,-22.41,-21.97,0,*7C
1537286429.31,552,24.5,74636.5,9.87,-22.53,-22.07,0,*78
1537286430.52,553,24.5,74640.8,9.89,-22.41,-22.03,0,*70
1537286431.74,554,24.5,74638.3,9.87,-22.47,-22.07,0,*7B
1537286432.95,555,24.5,74642.0,9.87,-22.47,-22.07,0,*7A
1537286434.15,556,24.5,74640.0,9.87,-22.53,-22.07,0,*7C
1537286435.33,557,24.5,74640.3,9.87,-22.37,-22.07,0,*7F
1537286436.52,558,24.5,74642.3,9.87,-22.37,-22.03,0,*74
1537286437.74,559,24.5,74640.5,9.87,-22.47,-22.07,0,*76
1537286438.98,560,24.5,74642.5,9.87,-22.31,-21.87,0,*76
1537286440.22,561,24.5,74638.8,9.87,-22.21,-21.87,0,*76
1537286441.47,562,24.5,74640.0,9.87,-22.21,-21.87,0,*75
1537286442.73,563,24.5,74640.0,9.89,-22.31,-21.87,0,*7B
1537286444.0,564,24.5,74640.0,9.89,-22.31,-21.97,0,*7D
1537286445.24,565,24.5,74636.8,9.89,-22.47,-22.11,0,*70
1537286446.46,566,24.5,74642.3,9.87,-22.53,-22.17,0,*7E
1537286447.68,567,24.5,74640.5,9.87,-22.53,-22.17,0,*7F
1537286448.9,568,24.5,74640.5,9.87,-22.47,-22.07,0,*74
1537286450.15,569,24.5,74640.0,9.87,-22.47,-22.17,0,*74
1537286451.36,570,24.5,74640.3,9.85,-22.57,-22.11,0,*79
1537286452.58,571,24.5,74640.3,9.87,-22.53,-22.17,0,*78
1537286453.81,572,24.5,74640.8,9.87,-22.53,-22.17,0,*7B
1537286455.05,573,24.5,74642.3,9.85,-22.57,-22.21,0,*79
1537286456.26,574,24.56,74640.8,9.85,-22.57,-22.11,0,*7D
1537286457.48,575,24.5,74640.3,9.85,-22.53,-22.11,0,*78
1537286458.67,576,24.5,74642.5,9.87,-22.53,-22.07,0,*7E
1537286459.88,577,24.5,74642.3,9.87,-22.63,-22.17,0,*7D
1537286461.09,578,24.5,74638.3,9.85,-22.67,-22.27,0,*77
1537286462.31,579,24.5,74640.8,9.87,-22.53,-22.17,0,*70
1537286463.53,580,24.5,74642.0,9.85,-22.67,-22.27,0,*70
1537286464.75,581,24.5,74640.5,9.85,-22.73,-22.41,0,*74
1537286465.99,582,24.56,74640.8,9.85,-22.73,-22.27,0,*77
1537286467.22,583,24.5,74640.0,9.85,-22.67,-22.21,0,*75
1537286468.44,584,24.5,74642.5,9.85,-22.53,-22.11,0,*76
1537286469.65,585,24.5,74640.0,9.85,-22.53,-22.11,0,*77
1537286470.84,586,24.5,74642.5,9.83,-22.57,-22.11,0,*76
1537286472.08,587,24.5,74640.0,9.85,-22.57,-22.21,0,*72
1537286473.28,588,24.5,74638.8,9.83,-22.53,-22.11,0,*7C
1537286474.47,589,24.5,74640.8,9.83,-22.57,-22.11,0,*79
1537286475.66,590,24.5,74642.3,9.83,-22.53,-22.11,0,*75
1537286476.85,591,24.5,74640.3,9.83,-22.37,-22.07,0,*71
1537286478.06,592,24.5,74642.3,9.83,-22.37,-21.97,0,*78
1537286479.25,593,24.5,74642.3,9.83,-22.37,-22.07,0,*73
1537286480.47,594,24.5,74640.0,9.83,-22.57,-22.21,0,*76
1537286481.66,595,24.5,74640.3,9.83,-22.53,-22.11,0,*70
1537286482.85,596,24.5,74640.5,9.83,-22.53,-22.11,0,*73
1537286484.07,597,24.5,74642.5,9.83,-22.53,-22.21,0,*71
1537286485.28,598,24.5,74640.8,9.83,-22.37,-21.97,0,*72
1537286486.52,599,24.5,74640.3,9.81,-22.31,-21.93,0,*73
1537286487.74,600,24.5,74636.5,9.83,-22.27,-21.87,0,*70
1537286488.92,601,24.5,74640.0,9.83,-22.07,-21.77,0,*7C
1537286490.19,602,24.5,74640.5,9.85,-22.21,-21.87,0,*72
1537286491.4,603,24.5,74640.0,9.85,-22.27,-21.93,0,*70
1537286492.62,604,24.56,74646.0,9.83,-22.27,-21.87,0,*74
1537286493.81,605,24.5,74640.3,9.83,-22.27,-21.93,0,*70
1537286495.02,606,24.5,74636.3,9.85,-22.27,-21.93,0,*75
1537286496.23,607,24.5,74638.8,9.85,-22.27,-21.93,0,*74
1537286497.44,608,24.56,74642.0,9.85,-22.27,-21.93,0,*7B
1537286498.63,609,24.5,74640.0,9.83,-22.41,-22.07,0,*72
1537286499.81,610,24.5,74640.0,9.83,-22.41,-22.07,0,*7A
1537286501.02,611,24.5,74636.8,9.81,-22.41,-22.11,0,*7E
1537286502.24,612,24.5,74640.0,9.83,-22.37,-21.97,0,*73
1537286503.45,613,24.5,74638.0,9.83,-22.41,-21.97,0,*73
1537286504.68,614,24.5,74640.0,9.81,-22.27,-21.83,0,*73
1537286505.9,615,24.5,74642.3,9.83,-22.21,-21.77,0,*7D
1537286507.09,616,24.5,74640.5,9.83,-22.37,-21.93,0,*73
1537286508.3,617,24.5,74640.0,9.85,-22.37,-21.93,0,*74
1537286509.54,618,24.5,74640.8,9.85,-22.37,-21.87,0,*7E
1537286510.78,619,24.5,74640.8,9.85,-22.21,-21.77,0,*77
1537286512.02,620,24.5,74642.0,9.85,-22.27,-21.87,0,*74
1537286513.29,621,24.5,74642.3,9.85,-22.21,-21.87,0,*73
1537286514.5,622,24.5,74642.8,9.85,-22.37,-22.07,0,*7C
1537286515.71,623,24.5,74642.5,9.85,-22.41,-22.07,0,*7C
1537286516.94,624,24.5,74640.8,9.85,-22.37,-21.97,0,*70
1537286518.18,625,24.5,74640.0,9.85,-22.27,-21.87,0,*71
1537286519.39,626,24.5,74640.0,9.85,-22.27,-21.93,0,*77
1537286520.6,627,24.5,74642.5,9.85,-22.41,-22.07,0,*78
1537286521.81,628,24.56,74642.3,9.85,-22.41,-22.07,0,*77
1537286523.02,629,24.5,74642.3,9.83,-22.37,-21.97,0,*7B
1537286524.24,630,24.5,74640.0,9.83,-22.37,-21.97,0,*73
1537286525.42,631,24.5,74640.5,9.83,-22.41,-22.07,0,*79
1537286526.62,632,24.5,74642.5,9.83,-22.57,-22.11,0,*7A
1537286527.8,633,24.5,74640.8,9.83,-22.41,-22.11,0,*7C
1537286528.99,634,24.5,74642.8,9.87,-22.37,-22.07,0,*79
1537286530.2,635,24.5,74640.3,9.85,-22.41,-22.07,0,*7B
1537286531.38,636,24.5,74642.5,9.83,-22.41,-22.07,0,*7E
1537286532.6,637,24.56,74642.5,9.83,-22.37,-21.97,0,*74
1537286533.84,638,24.5,74640.0,9.83,-22.21,-21.87,0,*7D
1537286535.03,639,24.5,74642.3,9.83,-22.11,-21.77,0,*70
1537286536.22,640,24.5,74640.0,9.83,-22.27,-21.77,0,*7B
1537286537.48,641,24.5,74640.3,9.85,-22.21,-21.87,0,*75
1537286538.72,642,24.5,74640.0,9.85,-22.27,-21.97,0,*71
1537286539.93,643,24.5,74642.0,9.85,-22.41,-22.07,0,*7A
1537286541.13,644,24.5,74640.8,9.85,-22.41,-22.11,0,*7A
1537286542.35,645,24.5,74642.5,9.85,-22.53,-22.11,0,*78
1537286543.59,646,24.5,74642.5,9.85,-22.57,-22.21,0,*7C
1537286544.81,647,24.5,74640.0,9.83,-22.53,-22.21,0,*7F
1537286546.04,648,24.5,74642.3,9.85,-22.53,-22.21,0,*76
1537286547.28,649,24.5,74642.5,9.85,-22.67,-22.21,0,*70
1537286548.47,650,24.5,74640.0,9.83,-22.53,-22.11,0,*7A
1537286549.69,651,24.56,74642.5,9.83,-22.53,-22.21,0,*78
1537286550.92,652,24.5,74642.5,9.81,-22.63,-22.17,0,*7F
1537286552.14,653,24.5,74638.8,9.83,-22.57,-22.21,0,*7E
1537286553.41,654,24.56,74642.5,9.81,-22.47,-22.17,0,*7F
1537286554.62,655,24.5,74642.8,9.81,-22.41,-22.03,0,*7D
1537286555.84,656,24.5,74640.5,9.83,-22.47,-22.07,0,*7E
1537286557.08,657,24.56,74640.8,9.81,-22.41,-22.17,0,*7A
1537286558.32,658,24.5,74640.3,9.81,-22.47,-22.27,0,*70
1537286559.5,659,24.5,74642.3,9.83,-22.41,-22.11,0,*70
1537286560.71,660,24.5,74640.8,9.81,-22.41,-22.11,0,*78
1537286561.9,661,24.5,74640.8,9.83,-22.37,-22.07,0,*7D
1537286563.12,662,24.5,74640.3,9.83,-22.37,-21.87,0,*75
1537286564.36,663,24.56,74644.0,9.83,-22.31,-21.87,0,*72
1537286565.6,664,24.5,74642.5,9.81,-22.31,-22.11,0,*7B
1537286566.79,665,24.5,74642.3,9.83,-22.37,-22.07,0,*79
1537286567.97,666,24.5,74640.5,9.83,-22.41,-22.11,0,*7C
1537286569.21,667,24.5,74642.3,9.81,-22.41,-22.17,0,*79
1537286570.48,668,24.56,74642.8,9.81,-22.47,-22.17,0,*70
1537286571.7,669,24.5,74642.3,9.83,-22.37,-21.97,0,*7F
1537286572.96,670,24.5,74640.8,9.81,-22.31,-21.97,0,*73
1537286574.15,671,24.5,74640.5,9.83,-22.37,-22.03,0,*78
1537286575.38,672,24.5,74640.8,9.81,-22.47,-22.11,0,*7D
1537286576.6,673,24.5,74642.0,9.83,-22.41,-21.97,0,*75
1537286577.83,674,24.5,74642.5,9.81,-22.47,-22.11,0,*7B
1537286579.08,675,24.5,74640.3,9.81,-22.57,-22.17,0,*7D
1537286580.3,676,24.5,74640.8,9.81,-22.57,-22.27,0,*7D
1537286581.51,677,24.56,74642.5,9.81,-22.57,-22.27,0,*7C
1537286582.72,678,24.5,74642.0,9.81,-22.63,-22.27,0,*74
1537286583.98,679,24.56,74644.8,9.81,-22.73,-22.31,0,*73
1537286585.25,680,24.5,74642.3,9.81,-22.77,-22.31,0,*71
1537286586.46,681,24.5,74642.5,9.81,-22.63,-22.27,0,*72
1537286587.71,682,24.5,74640.8,9.81,-22.57,-22.17,0,*75
1537286588.95,683,24.5,74642.3,9.81,-22.41,-22.17,0,*73
1537286590.18,684,24.5,74638.3,9.79,-22.31,-21.97,0,*7F
1537286591.37,685,24.5,74640.0,9.79,-22.27,-21.77,0,*77
1537286592.56,686,24.5,74642.0,9.79,-22.11,-21.77,0,*71
1537286593.77,687,24.5,74642.5,9.83,-22.27,-21.97,0,*7E
1537286595.01,688,24.5,74642.5,9.81,-22.47,-22.11,0,*78
1537286596.22,689,24.56,74644.0,9.81,-22.41,-22.11,0,*7F
1537286597.46,690,24.5,74640.0,9.81,-22.47,-22.11,0,*71
1537286598.65,691,24.56,74642.5,9.79,-22.41,-22.11,0,*71
1537286599.83,692,24.5,74640.8,9.79,-22.41,-22.11,0,*72
1537286601.03,693,24.5,74638.8,9.79,-22.57,-22.11,0,*74
1537286602.25,694,24.56,74644.3,9.77,-22.63,-22.21,0,*79
1537286603.46,695,24.5,74640.3,9.81,-22.41,-22.11,0,*72
1537286604.67,696,24.56,74644.5,9.81,-22.41,-22.03,0,*72
1537286605.86,697,24.5,74640.0,9.79,-22.41,-22.11,0,*77
1537286607.08,698,24.5,74636.5,9.79,-22.47,-22.11,0,*7E
1537286608.3,699,24.56,74646.0,9.79,-22.57,-22.17,0,*78
1537286609.51,700,24.5,74640.0,9.79,-22.63,-22.17,0,*7E
1537286610.75,701,24.56,74644.8,9.77,-22.67,-22.31,0,*71
1537286611.96,702,24.5,74642.8,9.81,-22.57,-22.27,0,*7F
1537286613.15,703,24.56,74644.8,9.79,-22.63,-22.27,0,*7E
1537286614.38,704,24.5,74642.3,9.77,-22.63,-22.31,0,*70
1537286615.61,705,24.5,74642.3,9.77,-22.63,-22.21,0,*70
1537286616.8,706,24.5,74642.5,9.79,-22.63,-22.27,0,*7B
1537286618.03,707,24.5,74642.5,9.77,-22.63,-22.31,0,*73
1537286619.22,708,24.5,74640.8,9.79,-22.63,-22.27,0,*75
1537286620.45,709,24.56,74642.8,9.77,-22.67,-22.31,0,*79
1537286621.67,710,24.5,74642.5,9.79,-22.47,-22.11,0,*7F
1537286622.93,711,24.5,74640.3,9.77,-22.47,-22.17,0,*76
1537286624.13,712,24.5,74640.0,9.79,-22.57,-22.11,0,*7C
1537286625.37,713,24.5,74642.3,9.77,-22.53,-22.17,0,*71
1537286626.61,714,24.5,74644.0,9.77,-22.53,-22.17,0,*76
1537286627.85,715,24.5,74638.3,9.77,-22.67,-22.21,0,*75
1537286629.07,716,24.5,74640.5,9.77,-22.63,-22.21,0,*72
1537286630.31,717,24.5,74640.5,9.77,-22.53,-22.21,0,*70
1537286631.55,718,24.5,74640.5,9.77,-22.53,-22.21,0,*7F
1537286632.78,719,24.5,74642.3,9.77,-22.63,-22.21,0,*7D
1537286633.99,720,24.5,74640.3,9.77,-22.53,-22.07,0,*70
1537286635.23,721,24.56,74640.8,9.77,-22.53,-22.21,0,*75
1537286636.46,722,24.5,74640.5,9.77,-22.67,-22.31,0,*70
1537286637.73,723,24.5,74642.8,9.77,-22.77,-22.31,0,*70
1537286638.96,724,24.5,74638.0,9.77,-22.67,-22.31,0,*76
1537286640.21,725,24.5,74642.5,9.77,-22.53,-22.17,0,*74
1537286641.45,726,24.5,74642.0,9.73,-22.53,-22.21,0,*76
1537286642.69,727,24.5,74640.8,9.73,-22.53,-22.21,0,*77
1537286643.93,728,24.5,74640.8,9.73,-22.53,-22.21,0,*78
1537286645.18,729,24.5,74638.8,9.73,-22.53,-22.21,0,*79
1537286646.42,730,24.5,74638.8,9.73,-22.53,-22.21,0,*71
1537286647.66,731,24.5,74638.8,9.73,-22.57,-22.21,0,*74
1537286648.84,732,24.5,74642.5,9.71,-22.83,-22.41,0,*7A
1537286650.08,733,24.5,74640.5,9.73,-22.73,-22.37,0,*77
1537286651.3,734,24.5,74642.3,9.73,-22.53,-22.11,0,*76
1537286652.53,735,24.5,74642.3,9.77,-22.37,-21.97,0,*7C
1537286653.71,736,24.5,74640.0,9.71,-22.37,-22.03,0,*77
1537286654.92,737,24.5,74638.5,9.77,-22.37,-22.03,0,*70
1537286656.14,738,24.5,74640.0,9.73,-22.41,-22.11,0,*79
1537286657.35,739,24.56,74644.3,9.73,-22.41,-22.07,0,*7F
1537286658.56,740,24.5,74642.3,9.73,-22.41,-22.07,0,*71
1537286659.77,741,24.5,74642.8,9.77,-22.37,-22.03,0,*71
1537286661.01,742,24.5,74642.5,9.73,-22.53,-22.21,0,*74
1537286662.23,743,24.5,74642.3,9.73,-22.53,-22.11,0,*76
1537286663.42,744,24.56,74644.8,9.71,-22.53,-22.11,0,*73
1537286664.63,745,24.5,74640.3,9.71,-22.53,-22.21,0,*71
1537286665.85,746,24.5,74640.8,9.71,-22.57,-22.21,0,*76
1537286667.07,747,24.5,74642.5,9.73,-22.53,-22.11,0,*72
1537286668.25,748,24.5,74640.3,9.71,-22.53,-22.11,0,*7F
1537286669.46,749,24.5,74640.0,9.77,-22.37,-22.03,0,*79
1537286670.68,750,24.56,74644.0,9.71,-22.57,-22.21,0,*71
1537286671.92,751,24.5,74642.5,9.73,-22.53,-22.21,0,*76
1537286673.14,752,24.5,74640.3,9.73,-22.53,-22.11,0,*76
1537286674.35,753,24.5,74640.3,9.71,-22.57,-22.21,0,*72
1537286675.56,754,24.56,74646.8,9.71,-22.57,-22.21,0,*75
1537286676.77,755,24.5,74640.8,9.73,-22.67,-22.37,0,*72
1537286677.98,756,24.5,74640.8,9.71,-22.73,-22.37,0,*76
1537286679.16,757,24.5,74642.3,9.71,-22.83,-22.53,0,*7A
1537286680.35,758,24.5,74642.3,9.71,-22.83,-22.53,0,*75
1537286681.61,759,24.56,74642.0,9.69,-22.73,-22.31,0,*76
1537286682.87,760,24.5,74642.5,9.69,-22.77,-22.31,0,*78
1537286684.11,761,24.5,74642.3,9.69,-22.87,-22.47,0,*77
1537286685.38,762,24.5,74640.5,9.69,-22.73,-22.31,0,*7E
1537286686.64,763,24.5,74640.0,9.69,-22.77,-22.31,0,*7B
1537286687.88,764,24.56,74640.0,9.69,-22.63,-22.31,0,*79
1537286689.12,765,24.5,74640.3,9.67,-22.73,-22.31,0,*77
1537286690.39,766,24.5,74640.3,9.69,-22.77,-22.47,0,*7F
1537286691.6,767,24.56,74644.0,9.67,-22.87,-22.47,0,*7F
1537286692.87,768,24.5,74642.5,9.69,-22.77,-22.47,0,*71
1537286694.08,769,24.5,74638.0,9.67,-22.77,-22.41,0,*78
1537286695.29,770,24.56,74640.8,9.67,-22.77,-22.41,0,*70
1537286696.51,771,24.5,74640.0,9.67,-22.77,-22.41,0,*71
1537286697.75,772,24.5,74640.8,9.67,-22.77,-22.47,0,*74
1537286698.97,773,24.5,74640.3,9.67,-22.63,-22.31,0,*71
1537286700.18,774,24.5,74640.8,9.67,-22.63,-22.31,0,*76
1537286701.39,775,24.56,74642.5,9.65,-22.63,-22.37,0,*73
1537286702.6,776,24.5,74638.8,9.67,-22.63,-22.31,0,*74
1537286703.82,777,24.5,74640.8,9.67,-22.57,-22.31,0,*72
1537286705.04,778,24.5,74638.8,9.67,-22.57,-22.31,0,*7D
1537286706.23,779,24.56,74644.0,9.67,-22.57,-22.27,0,*7B
1537286707.47,780,24.5,74642.3,9.65,-22.63,-22.31,0,*7F
1537286708.71,781,24.5,74640.5,9.69,-22.47,-22.27,0,*73
1537286709.95,782,24.5,74642.8,9.65,-22.63,-22.31,0,*7D
1537286711.19,783,24.5,74640.8,9.65,-22.77,-22.37,0,*7F
1537286712.42,784,24.56,74642.8,9.65,-22.77,-22.41,0,*79
1537286713.7,785,24.56,74644.5,9.65,-22.47,-22.17,0,*78
1537286714.88,786,24.56,74644.5,9.63,-22.57,-22.37,0,*7E
1537286716.06,787,24.5,74640.0,9.63,-22.67,-22.37,0,*7C
1537286717.27,788,24.56,74644.5,9.65,-22.63,-22.37,0,*71
1537286718.45,789,24.56,74642.8,9.63,-22.67,-22.41,0,*73
1537286719.69,790,24.5,74640.0,9.65,-22.63,-22.31,0,*7E
1537286720.88,791,24.5,74642.3,9.63,-22.57,-22.37,0,*78
1537286722.06,792,24.5,74642.5,9.63,-22.67,-22.37,0,*78
1537286723.24,793,24.5,74640.0,9.63,-22.67,-22.37,0,*79
1537286724.48,794,24.5,74640.8,9.65,-22.53,-22.21,0,*78
1537286725.67,795,24.5,74640.3,9.63,-22.57,-22.37,0,*7C
1537286726.91,796,24.56,74642.3,9.65,-22.53,-22.21,0,*7A
1537286728.09,797,24.5,74640.8,9.63,-22.67,-22.37,0,*7D
1537286729.31,798,24.56,74642.0,9.61,-22.57,-22.27,0,*72
1537286730.53,799,24.5,74640.3,9.61,-22.57,-22.27,0,*73
1537286731.71,800,24.5,74640.5,9.63,-22.57,-22.37,0,*7F
1537286732.95,801,24.5,74640.5,9.61,-22.73,-22.37,0,*7A
1537286734.16,802,24.56,74644.0,9.61,-22.83,-22.37,0,*76
1537286735.37,803,24.5,74640.8,9.61,-22.83,-22.53,0,*75
1537286736.59,804,24.5,74640.8,9.61,-22.67,-22.37,0,*7A
1537286737.8,805,24.5,74638.8,9.61,-22.87,-22.53,0,*77
1537286739.01,806,24.5,74642.5,9.61,-22.87,-22.53,0,*74
1537286740.22,807,24.5,74640.0,9.59,-22.93,-22.73,0,*79
1537286741.44,808,24.5,74642.5,9.59,-22.87,-22.47,0,*74
1537286742.63,809,24.5,74638.0,9.59,-22.83,-22.53,0,*74
1537286743.87,810,24.5,74642.3,9.59,-22.73,-22.47,0,*76
1537286745.12,811,24.56,74640.0,9.59,-22.77,-22.47,0,*73
1537286746.33,812,24.5,74640.3,9.59,-22.77,-22.41,0,*76
1537286747.57,813,24.5,74640.8,9.59,-22.77,-22.47,0,*71
1537286748.85,814,24.5,74642.3,9.57,-22.77,-22.47,0,*78
1537286750.09,815,24.5,74642.3,9.57,-22.77,-22.37,0,*7E
1537286751.3,816,24.5,74642.0,9.61,-22.67,-22.37,0,*79
1537286752.54,817,24.56,74642.3,9.57,-22.83,-22.47,0,*70
1537286753.75,818,24.5,74642.5,9.59,-22.77,-22.41,0,*7C
1537286754.99,819,24.5,74640.5,9.59,-22.73,-22.31,0,*7E
1537286756.23,820,24.5,74640.5,9.59,-22.73,-22.31,0,*74
1537286757.47,821,24.56,74640.3,9.57,-22.83,-22.47,0,*75
1537286758.68,822,24.5,74642.5,9.57,-22.83,-22.53,0,*73
1537286759.9,823,24.56,74642.5,9.57,-22.93,-22.53,0,*73
1537286761.11,824,24.5,74642.0,9.57,-22.93,-22.53,0,*74
1537286762.3,825,24.5,74640.0,9.55,-22.97,-22.63,0,*70
1537286763.52,826,24.5,74640.5,9.57,-22.93,-22.53,0,*76
1537286764.73,827,24.5,74640.8,9.57,-22.97,-22.67,0,*74
1537286765.92,828,24.5,74640.3,9.55,-22.93,-22.53,0,*7A
1537286767.14,829,24.56,74640.8,9.57,-22.83,-22.53,0,*78
1537286768.32,830,24.56,74640.3,9.55,-22.83,-22.53,0,*72
1537286769.51,831,24.5,74642.3,9.55,-22.83,-22.53,0,*73
1537286770.72,832,24.5,74638.5,9.55,-22.77,-22.37,0,*79
1537286771.93,833,24.56,74640.5,9.55,-22.83,-22.47,0,*74
1537286773.18,834,24.5,74640.5,9.55,-22.77,-22.47,0,*78
1537286774.36,835,24.56,74640.3,9.55,-22.83,-22.53,0,*77
1537286775.55,836,24.5,74642.3,9.55,-22.83,-22.63,0,*77
1537286776.74,837,24.5,74638.0,9.55,-22.93,-22.53,0,*74
1537286777.98,838,24.5,74642.5,9.53,-23.03,-22.67,0,*72
1537286779.21,839,24.5,74640.8,9.53,-23.13,-22.73,0,*77
1537286780.42,840,24.5,74642.3,9.53,-22.97,-22.57,0,*72
1537286781.63,841,24.5,74636.8,9.53,-22.87,-22.57,0,*72
1537286782.84,842,24.5,74640.5,9.53,-22.87,-22.57,0,*71
1537286784.05,843,24.5,74640.8,9.49,-22.87,-22.63,0,*7C
1537286785.26,844,24.5,74638.3,9.53,-22.83,-22.57,0,*73
1537286786.48,845,24.5,74640.0,9.49,-22.93,-22.63,0,*7F
1537286787.69,846,24.5,74640.0,9.49,-22.87,-22.63,0,*79
1537286788.91,847,24.56,74640.0,9.49,-22.93,-22.63,0,*7D
1537286790.12,848,24.5,74640.8,9.53,-22.87,-22.57,0,*7B
1537286791.33,849,24.5,74638.5,9.49,-22.93,-22.63,0,*73
1537286792.55,850,24.5,74640.8,9.49,-22.87,-22.63,0,*7E
1537286793.76,851,24.56,74640.0,9.49,-22.93,-22.63,0,*7A
1537286794.98,852,24.5,74640.3,9.49,-22.93,-22.57,0,*7E
1537286796.23,853,24.5,74640.8,9.49,-22.93,-22.47,0,*7E
1537286797.45,854,24.56,74642.3,9.49,-22.73,-22.41,0,*71
1537286798.69,855,24.5,74640.0,9.49,-22.73,-22.37,0,*71
1537286799.93,856,24.5,74638.8,9.49,-22.77,-22.57,0,*70
1537286801.17,857,24.5,74640.0,9.47,-22.77,-22.47,0,*7E
1537286802.39,858,24.5,74638.0,9.47,-22.77,-22.37,0,*76
1537286803.59,859,24.56,74644.3,9.47,-22.73,-22.37,0,*73
1537286804.8,860,24.5,74640.5,9.49,-22.63,-22.27,0,*77
1537286806.04,861,24.5,74640.5,9.49,-22.47,-22.11,0,*75
1537286807.25,862,24.56,74642.0,9.49,-22.41,-22.07,0,*77
1537286808.46,863,24.5,74642.0,9.49,-22.41,-22.11,0,*71
1537286809.69,864,24.56,74640.8,9.49,-22.41,-22.21,0,*75
1537286810.9,865,24.56,74640.8,9.49,-22.41,-22.11,0,*77
1537286812.11,866,24.5,74642.0,9.49,-22.41,-22.07,0,*73
1537286813.34,867,24.5,74640.8,9.49,-22.27,-21.97,0,*78
1537286814.55,868,24.5,74638.5,9.49,-22.27,-21.93,0,*73
1537286815.79,869,24.5,74640.5,9.49,-22.37,-21.97,0,*77
1537286817.0,870,24.5,74640.5,9.49,-22.41,-22.07,0,*74
1537286818.21,871,24.5,74638.3,9.49,-22.63,-22.27,0,*77
1537286819.44,872,24.5,74640.3,9.49,-22.63,-22.21,0,*72
1537286820.65,873,24.56,74642.3,9.49,-22.41,-22.11,0,*70
1537286821.86,874,24.5,74636.8,9.53,-22.37,-21.93,0,*74
1537286823.07,875,24.56,74642.0,9.53,-22.41,-22.07,0,*7A
1537286824.29,876,24.5,74642.3,9.49,-22.57,-22.27,0,*77
1537286825.53,877,24.5,74640.3,9.53,-22.53,-22.21,0,*7F
1537286826.77,878,24.5,74638.8,9.53,-22.53,-22.17,0,*75
1537286828.01,879,24.5,74640.8,9.49,-22.57,-22.21,0,*7E
1537286829.21,880,24.56,74642.5,9.49,-22.63,-22.41,0,*79
1537286830.42,881,24.5,74640.3,9.49,-22.63,-22.37,0,*79
1537286831.64,882,24.56,74640.0,9.49,-22.57,-22.27,0,*7C
1537286832.9,883,24.56,74640.5,9.49,-22.47,-22.21,0,*7A
1537286834.11,884,24.5,74642.5,9.49,-22.41,-22.11,0,*78
1537286835.32,885,24.56,74642.5,9.49,-22.63,-22.37,0,*7D
1537286836.52,886,24.56,74642.5,9.49,-22.63,-22.37,0,*7E
1537286837.79,887,24.5,74640.8,9.49,-22.47,-22.21,0,*7E
1537286839.02,888,24.5,74640.8,9.49,-22.73,-22.37,0,*71
1537286840.29,889,24.5,74640.5,9.49,-22.77,-22.47,0,*73
1537286841.52,890,24.5,74640.5,9.53,-22.73,-22.57,0,*75
1537286842.73,891,24.5,74640.8,9.49,-22.87,-22.57,0,*74
1537286844.01,892,24.5,74638.8,9.49,-22.77,-22.47,0,*79
1537286845.24,893,24.56,74642.8,9.49,-22.73,-22.37,0,*7B
1537286846.47,894,24.5,74640.5,9.49,-22.77,-22.41,0,*79
1537286847.68,895,24.5,74640.5,9.49,-22.63,-22.37,0,*7C
1537286848.88,896,24.56,74642.0,9.49,-22.63,-22.37,0,*7F
1537286850.06,897,24.56,74642.0,9.47,-22.63,-22.41,0,*71
1537286851.25,898,24.5,74640.8,9.47,-22.57,-22.37,0,*78
1537286852.46,899,24.5,74638.3,9.47,-22.57,-22.21,0,*7E
1537286853.7,900,24.5,74638.5,9.49,-22.47,-22.27,0,*76
1537286854.89,901,24.5,74638.8,9.47,-22.37,-22.11,0,*7B
1537286856.12,902,24.5,74640.5,9.47,-22.47,-22.21,0,*7C
1537286857.36,903,24.56,74640.3,9.47,-22.47,-22.21,0,*7D
1537286858.54,904,24.5,74640.5,9.47,-22.41,-22.11,0,*7F
1537286859.73,905,24.5,74640.5,9.47,-22.41,-22.27,0,*7B
1537286860.94,906,24.56,74640.3,9.47,-22.63,-22.47,0,*7E
1537286862.18,907,24.56,74640.3,9.47,-22.73,-22.47,0,*7E
1537286863.38,908,24.5,74640.8,9.47,-22.73,-22.41,0,*77
1537286864.56,909,24.5,74640.0,9.47,-22.57,-22.41,0,*70
1537286865.8,910,24.5,74642.3,9.47,-22.73,-22.47,0,*78
1537286867.05,911,24.5,74640.5,9.47,-22.77,-22.47,0,*7D
1537286868.3,912,24.5,74642.3,9.45,-22.77,-22.63,0,*7A
1537286869.54,913,24.5,74642.0,9.47,-22.77,-22.47,0,*7F
1537286870.73,914,24.5,74640.0,9.47,-22.57,-22.37,0,*7D
1537286871.92,915,24.56,74642.0,9.47,-22.57,-22.27,0,*7D
1537286873.11,916,24.56,74644.0,9.47,-22.57,-22.37,0,*7F
1537286874.29,917,24.5,74638.8,9.47,-22.57,-22.41,0,*7F
1537286875.47,918,24.5,74638.3,9.47,-22.63,-22.37,0,*76
1537286876.68,919,24.56,74642.5,9.47,-22.57,-22.21,0,*77
1537286877.92,920,24.5,74636.5,9.47,-22.47,-22.21,0,*7C
1537286879.11,921,24.5,74642.3,9.47,-22.57,-22.37,0,*7B
1537286880.35,922,24.5,74638.8,9.45,-22.67,-22.47,0,*7E
1537286881.53,923,24.56,74640.3,9.47,-22.57,-22.41,0,*78
1537286882.71,924,24.5,74642.0,9.47,-22.63,-22.41,0,*78
1537286883.92,925,24.5,74638.5,9.47,-22.63,-22.47,0,*7F
1537286885.1,926,24.5,74642.5,9.47,-22.63,-22.41,0,*7A
1537286886.27,927,24.5,74642.3,9.47,-22.63,-22.41,0,*7B
1537286887.52,928,24.56,74640.3,9.45,-22.67,-22.47,0,*74
1537286888.76,929,24.56,74642.5,9.45,-22.63,-22.47,0,*71
1537286890.01,930,24.5,74640.5,9.45,-22.67,-22.47,0,*7D
1537286891.25,931,24.5,74636.0,9.45,-22.67,-22.47,0,*7C
1537286892.5,932,24.56,74640.0,9.45,-22.77,-22.53,0,*7B
1537286893.74,933,24.56,74642.3,9.45,-22.77,-22.63,0,*79
1537286894.99,934,24.56,74642.5,9.45,-22.77,-22.53,0,*7D
1537286896.23,935,24.56,74642.0,9.45,-22.63,-22.47,0,*7C
1537286897.44,936,24.56,74640.3,9.45,-22.67,-22.41,0,*7D
1537286898.68,937,24.56,74644.3,9.45,-22.67,-22.47,0,*7A
1537286899.9,938,24.5,74640.0,9.45,-22.53,-22.41,0,*74
1537286901.08,939,24.56,74640.8,9.43,-22.63,-22.41,0,*70
1537286902.3,940,24.56,74644.0,9.43,-22.53,-22.31,0,*7A
1537286903.57,941,24.5,74638.8,9.45,-22.47,-22.31,0,*78
1537286904.76,942,24.5,74640.0,9.43,-22.41,-22.27,0,*7C
1537286905.95,943,24.56,74640.0,9.43,-22.41,-22.27,0,*7D
1537286907.19,944,24.56,74640.8,9.45,-22.41,-22.17,0,*7F
1537286908.46,945,24.5,74636.8,9.41,-22.31,-21.97,0,*76
1537286909.7,946,24.5,74636.8,9.45,-22.31,-22.03,0,*7F
1537286910.94,947,24.56,74642.5,9.45,-22.47,-22.27,0,*79
1537286912.18,948,24.5,74640.8,9.45,-22.67,-22.47,0,*72
1537286913.39,949,24.56,74642.8,9.45,-22.67,-22.41,0,*75
1537286914.66,950,24.56,74642.0,9.45,-22.47,-22.17,0,*7C
1537286915.91,951,24.5,74638.8,9.45,-22.47,-22.27,0,*7E
1537286917.15,952,24.5,74638.3,9.45,-22.53,-22.31,0,*7F
1537286918.36,953,24.5,74642.3,9.45,-22.63,-22.41,0,*7A
1537286919.54,954,24.5,74638.8,9.43,-22.63,-22.41,0,*7B
1537286920.76,955,24.56,74644.0,9.43,-22.47,-22.27,0,*7C